CZ-6A DEB, 60696

Orbit data source: Space-Track

CZ-6A DEB, 60696 is space debris in LEO originally from a launch on Tue, 06 Aug 2024 UTC launched from the Taiyaun Space Center, China (TSC). Debris objects in space refer to the collection of defunct objects orbiting the Earth. Examples of debris include non-operational satellites, rocket bodies, and fragments generated from explosions, collisions, or faulty payload assembly.

Loading next visibility...
Identifier
60696, 2024-140CZ
Orbit
LEO
Country
Flag of CNCN / PRC
Related business
Manufacturer
SAST
Mission
Spacecraft
Bus & Motor
Unknown
Mass
Unknown
Launch date (UTC)
2024-08-06 (2 years ago)
Launch vehicle
Unknown
Launch site
Taiyaun Space Center, China (TSC)
Object type
Payload
Rocket body
Debris
Shape & HBR
Unknown shape, 0.5 m
Radar Cross Section
Medium (>0.1 m² and <1 m²)

Expand to show TLE details & history
Last TLE update: 13 hours ago

TLE from 13 hours ago
0 CZ-6A DEB
1 60696U 24140CZ  26171.32143847  .00000249  00000-0  11768-3 0  9998
2 60696  89.0329 277.3876 0061934 185.9962 174.0492 14.15666581 96389
Epoch: 2026-06-20T07:42Z
TLE epoch observation values (Epoch: 2026-06-20T07:42:52.283Z)
Latitude
-0.00003°
Longitude
-106.86798°
Altitude
887.569 km
Speed
7.385 km/s
True Right ascension
18h 29m 33s
True Declination
0° 00' 00"
Sunlit
Object was in full shadow at epoch
Visualization orbit readout
Latitude
Unknown
Longitude
Unknown
Altitude
Unknown
Speed
Unknown
Apparent Right ascension
Unknown
Apparent Declination
Unknown
Sunlit
N/A
Visualization observer readout
Local Sidereal Time
07:20:49
Azimuth
Unknown
Elevation
Unknown
Doppler factor
Unknown
Orbital elements
Apogee altitude
881.689 km
Perigee altitude
792.316 km
Semi-major axis
7,215.14 km
Eccentricity
0.00619
Inclination
89.0329°
RAAN
277.3876°
Arg. of periapsis
185.9962°
True anomaly
174.12222°
Mean anomaly
174.0492°
Eccentric anomaly
174.08576°
Mean motion
3.54141 °/min
Orbital period
101.65 mins
BSTAR
0.00011768
Loading maneuver chart data...
Computing Atmospheric mass density...
Loading historical data...
Loading historical data...
Loading historical data...
Loading historical data...
Loading historical data...
Loading historical data...
Loading historical data...

Documentation

Showing up to 5 results
|